Location: Praha
(50.0830°N, 14.4670°E)
Time: 21:55:43
(UTC+02:00)

ISS - Pass Details

Date: 23 September 2019
Orbit: 411 x 421 km, 51.6° (Epoch: 19 September)

Event Time Altitude Azimuth Distance (km) Brightness Sun altitude
Rises 20:34:19 0° 245° (WSW) 2,339 0.8 -15.9°
Reaches altitude 10° 20:36:25 10° 244° (WSW) 1,478 -0.4 -16.2°
Maximum altitude 20:39:43 72° 160° (SSE) 436 -3.9 -16.7°
Enters shadow 20:40:32 46° 90° (E) 560 -3.6 -16.8°
